OIAM

Details ICAO OIAM (MRX)
Name MAHSHAHR
Region Iran
Timezone Asia/Tehran (UTC+4.5)
Plans Departing 0
Arriving 1
Stats Elevation 8 ft / 2 m (AMSL)
Location 30.556192° 49.151879°
Runways 1
Magnetic Variation 3.731° E
Sunrise 2018-05-27 01:44:35 UTC / 2018-05-27 06:14:35 Local
Sunset 2018-05-27 15:39:22 UTC / 2018-05-27 20:09:22 Local
Advertisement - Login to hide

Runways

ID Width Length Bearing (true) Bearing (mag) Surface Threshold Offset Overrun Length
14 148 ft / 45 m 8,849 ft / 2,697 m 137.41° 133.68° Asphalt 0 ft / 0 m 656 ft / 200 m
32 148 ft / 45 m 8,849 ft / 2,697 m 317.42° 313.69° Asphalt 984 ft / 300 m 200 ft / 61 m

Map

Weather


0- 5 10 15 20 25 30 35+ Temperature / ° C

Clouds and Precipitation
Forecast for 2018-05-27 18:00 UTC. Updated 30 minutes ago

Ground ~20,000 ft ~40,000 ft Winds

METAR

OIAM 271700Z 31008KT CAVOK 37/11 Q1004

TAF

Not found

Frequencies

Tower 118.65 MHz ATIS
Warning: Do not use this data for real-world aviation or navigation. No guarantee of current accuracy is given.